Location: Gars
(48.5833°N, 15.6500°E)
Time: 10:47:18
(UTC+00:00)

Daily predictions for brighter satellites

Satellite Brightness Start Highest point End
(mag) Time Altitude Azimuth Time Altitude Azimuth Time Altitude Azimuth
Meteor 2-19 Rocket 4.4 15:27:40 10° N 15:33:46 71° ENE 15:39:51 10° SSE
Iridium 2 3.8 15:30:33 10° N 15:34:19 79° W 15:38:03 10° S
Cosmos 2034 Rocket 4.1 15:31:41 10° SSE 15:37:38 54° E 15:43:37 10° NNE
Cosmos 540 Rocket 4.5 15:36:44 10° SSE 15:40:56 27° E 15:45:10 10° NE
USA 307 3.6 15:37:13 10° W 15:41:20 43° N 15:45:26 10° ENE
NOAA 11 4.3 15:36:00 10° SSE 15:41:25 86° WSW 15:46:55 10° NNW
COSMOS 2406 4.0 15:39:00 10° SSE 15:44:04 33° ESE 15:49:08 10° NE
ARGOS 4.4 15:41:15 10° ESE 15:45:02 20° ENE 15:48:50 10° NNE
Cosmos 1833 Rocket 3.2 15:40:23 10° S 15:45:38 43° ESE 15:50:56 10° NE
COSMO-SKYMED 1 4.4 15:46:51 10° ENE 15:48:39 12° E 15:50:27 10° ESE
Meteor 1-31 Rocket 4.5 15:45:52 10° SSW 15:49:24 37° W 15:52:59 10° NNW
ATLAS CENTAUR R/B 3.6 15:39:48 10° SSW 15:50:35 54° SE 15:55:00 11° ENE
SL-08 R/B 3.3 15:46:02 10° NNE 15:50:48 85° ESE 15:55:25 10° SSW
ADEOS 4.3 15:46:54 10° S 15:52:02 59° WSW 15:57:14 10° NNW
Cosmos 1782 4.0 15:50:51 10° SE 15:54:04 24° E 15:57:17 10° NE
Cosmos 468 Rocket 4.1 15:49:58 10° S 15:54:59 56° ESE 16:00:06 10° NNE
Cosmos 1633 Rocket 4.4 15:53:45 10° NNE 15:56:49 18° ENE 15:59:54 10° ESE
ATLAS CENTAUR R/B 3.4 15:53:43 10° W 15:57:03 21° NNW 16:00:34 10° NNE
Cosmos 1898 Rocket 3.5 15:52:22 10° NNW 15:57:40 73° ENE 16:02:52 10° SSE
COSMOS 2455 3.6 15:54:43 10° S 15:59:59 33° ESE 16:05:04 11° NE
Cosmos 1606 3.6 15:57:30 10° SSW 16:01:09 49° WNW 16:04:51 10° N
Cosmos 2026 Rocket 4.1 15:56:41 10° N 16:02:40 51° ENE 16:08:33 10° SSE
Cosmos 1408 Rocket 4.3 15:58:43 10° NNW 16:03:01 58° W 16:07:19 10° S
Cosmos 1340 Rocket 3.0 15:59:31 10° NNW 16:03:36 78° W 16:07:40 10° S
USA 308 3.6 15:59:49 10° WNW 16:03:51 40° N 16:07:12 14° ENE
CZ-2C R/B 3.8 16:00:04 10° NE 16:03:58 21° E 16:07:51 10° SE
CZ-4C R/B 4.3 16:01:32 10° N 16:05:16 45° WNW 16:08:48 10° SW
CZ-2D R/B 3.8 16:02:24 10° SE 16:05:54 34° ENE 16:09:23 10° N
CZ-2C R/B 3.2 16:01:10 10° S 16:06:02 71° WSW 16:10:48 10° NNW
ERBS 3.7 16:03:20 10° WNW 16:06:05 26° NNW 16:08:26 12° NE
Cosmos 2195 Rocket 4.5 16:00:06 10° N 16:06:13 63° ENE 16:12:22 10° SSE
CZ-4B R/B 3.8 16:01:49 10° SE 16:06:36 33° ENE 16:11:20 10° N
Cosmos 2360 4.2 16:02:53 10° NNW 16:08:41 80° ENE 16:14:24 10° SSE
Cosmos 1500 3.6 16:07:27 10° N 16:10:58 37° ENE 16:14:27 10° SE
Cosmos 1743 Rocket 3.5 16:07:12 10° N 16:11:32 87° W 16:15:52 10° S
Meteor 1-20 Rocket 4.3 16:05:47 10° N 16:11:39 86° ENE 16:17:31 10° SSE
Cosmos 1151 Rocket 4.2 16:08:32 10° SE 16:11:53 22° E 16:14:34 13° NE
NOSS 2-2 (C) 4.2 16:07:38 10° NW 16:12:33 64° NE 16:19:26 10° SE
Lacrosse 5 rocket 2.2 16:09:05 10° NW 16:12:34 31° NNE 16:14:59 17° ENE
Okean O Rocket 2.6 16:11:17 10° ESE 16:14:59 26° ENE 16:18:41 10° N
USA 267 3.3 16:13:43 13° NE 16:19:41 87° SE 16:26:14 10° SW
Cosmos 1666 Rocket 4.1 16:18:43 10° N 16:22:52 36° ENE 16:26:57 10° SE
H-2A R/B 2.1 16:18:47 10° SSE 16:23:48 54° ENE 16:28:43 10° N
Cosmos 2360 Rocket 3.8 16:21:13 10° N 16:24:27 15° NNE 16:25:23 15° NE
Cosmos 1809 Rocket 4.4 16:19:26 10° N 16:25:35 80° E 16:31:40 10° SSE
Cosmos 1763 Rocket 3.6 16:23:06 10° SSW 16:28:10 76° WNW 16:33:19 10° NNE
CZ-4B R/B 4.3 16:24:30 10° S 16:28:19 40° W 16:31:59 10° NNW
USA 305 3.6 16:26:38 10° WNW 16:30:39 39° N 16:32:46 23° ENE
Meteor 2-21 Rocket 4.4 16:25:30 10° N 16:31:32 58° ENE 16:37:29 10° SSE
Cosmos 1933 3.3 16:29:52 10° S 16:33:55 84° W 16:37:59 10° N
PSLV R/B 3.5 16:30:43 10° SSE 16:34:23 82° ENE 16:38:09 10° NNW
Cosmos 841 Rocket 3.5 16:29:31 10° S 16:34:34 58° ESE 16:38:47 15° NNE
MOS 1-B 4.3 16:31:15 10° SSE 16:36:59 74° ENE 16:42:47 10° NNW
SKYMED 2 4.2 16:34:48 20° NE 16:37:11 35° E 16:41:10 10° SSE
Cosmos 1937 Rocket 3.8 16:32:18 10° NNW 16:37:39 74° WSW 16:42:56 10° SSE
Cosmos 1125 Rocket 4.3 16:35:56 10° N 16:40:27 28° NE 16:41:53 25° E
Cosmos 1666 2.8 16:36:53 10° N 16:40:29 44° ENE 16:44:03 10° SSE
SL-24 R/B - RUBIN 2 3.5 16:38:59 10° NW 16:43:35 86° SW 16:47:54 10° SE
Cosmos 2322 Rocket 3.2 16:40:15 10° NNW 16:44:59 26° NE 16:45:57 25° ENE
ATLAS 2AS CENTAUR R/B 4.2 16:39:39 10° WNW 16:45:49 25° N 16:50:01 16° NE
Cosmos 1697 Rocket 3.6 16:41:34 10° NW 16:47:00 51° WSW 16:52:24 10° S
Cosmos 372 Rocket 4.0 16:43:38 10° NNW 16:48:54 89° WSW 16:54:09 10° SSE
Sich 1 3.3 16:45:32 10° NNW 16:49:48 70° W 16:54:05 10° S
Cosmos 1980 Rocket 2.2 16:45:45 10° NNW 16:51:29 86° WSW 16:57:07 10° SSE
Cosmos 1805 Rocket 4.4 16:47:32 10° NNW 16:51:46 52° W 16:55:58 10° S
Meteor 1-14 Rocket 4.2 16:46:40 10° N 16:52:30 74° ENE 16:58:25 10° SSE
Cosmos 2369 4.1 16:47:38 10° NNW 16:53:21 69° WSW 16:59:01 10° SSE
USA 234 3.8 16:47:46 10° SE 16:54:12 59° SW 17:00:40 10° WNW
SL-08 RB Rocket 4.0 16:53:02 10° SE 16:57:26 45° ENE 17:01:50 10° N
Meteor 1-5 Rocket 4.2 16:51:27 10° N 16:57:28 73° ENE 17:03:22 10° SSE
CZ-4C R/B 2.9 16:51:11 10° NW 16:58:19 82° NE 17:06:44 10° SE
Cosmos 1812 2.5 16:57:04 10° S 17:00:54 75° E 17:02:43 30° NNE
USA 306 3.4 16:58:51 10° WNW 17:02:54 42° N 17:03:35 38° NE
SL-16 R/B 2.6 16:57:37 10° NNW 17:02:58 40° NE 17:04:16 35° E
ISS -3.2 17:00:44 10° WNW 17:04:04 56° SSW 17:04:59 40° SSE
MOS 1-B Rocket 4.0 16:58:21 10° NNE 17:04:13 82° ESE 17:10:54 10° SSW
deb Chang Zheng 4 3.4 17:00:20 10° SSE 17:04:39 86° ENE 17:08:59 10° NNW
Cosmos 2082 Rocket 2.1 17:01:34 10° SSW 17:07:14 83° ESE 17:10:43 25° NNE
Cosmos 44 Rocket 3.2 17:08:13 10° NW 17:13:09 64° NE 17:14:23 46° ESE
Cosmos 2333 Rocket 3.9 17:09:40 10° N 17:12:25 17° NNE 17:12:25 17° NNE
Meteor 2-16 Rocket 4.5 17:08:17 10° N 17:14:26 83° W 17:20:33 10° S
Cosmos 2278 3.8 17:11:43 10° NNW 17:17:27 77° WSW 17:23:07 10° SSE
Cosmos 2142 Rocket 4.5 17:12:50 10° S 17:19:00 85° W 17:25:17 10° N
USA 307 3.4 17:17:42 10° WNW 17:21:44 44° N 17:21:44 44° N
Cosmos 540 Rocket 4.3 17:17:21 10° SW 17:22:16 47° WNW 17:26:07 16° N
ARGOS 3.2 17:19:19 10° S 17:24:43 78° WSW 17:30:10 10° NNW
COSMO-SKYMED 1 2.6 17:23:24 32° N 17:25:23 79° WNW 17:29:43 10° SSW
Cosmos 1900 4.3 17:20:52 10° SSW 17:25:33 56° ESE 17:25:33 56° ESE
Cosmos 2279 Rocket 4.0 17:20:23 10° SSW 17:26:36 79° W 17:32:51 10° N
Cosmos 1570 Rocket 3.9 17:21:33 10° SSW 17:26:47 85° ESE 17:28:35 43° NNE
Cosmos 2298 Rocket 3.9 17:22:02 10° NNW 17:27:23 68° ENE 17:28:50 47° SE
COSMOS 2406 4.1 17:22:40 10° SW 17:28:13 47° NW 17:32:09 19° NNE
Cosmos 1833 Rocket 3.9 17:24:26 10° WSW 17:29:39 37° NW 17:33:42 16° N
Cosmos 2266 Rocket 3.9 17:23:27 10° N 17:29:51 72° E 17:36:15 10° SSE
Cosmos 1814 Rocket 4.0 17:26:26 10° SSW 17:31:40 79° WNW 17:33:44 37° NNE
ATLAS 5 CENTAUR R/B 2.0 17:27:02 10° NW 17:33:07 66° NNW 17:33:07 66° NNW
Cosmos 921 Rocket 4.2 17:30:34 10° S 17:32:44 29° S 17:32:44 29° S
NOAA 15 4.4 17:29:31 10° SSE 17:34:48 75° ENE 17:40:05 10° NNW
Cosmos 1633 Rocket 3.8 17:30:41 10° NNW 17:34:56 52° W 17:39:12 10° S
Meteor 2-15 Rocket 4.3 17:29:44 10° S 17:35:45 63° E 17:37:33 44° NE
YAOGAN 1 4.1 17:39:35 26° N 17:39:35 26° N 17:41:29 10° NNW
Cosmos 1818 3.5 17:31:39 10° NW 17:37:11 86° SW 17:38:50 47° SSE
ATLAS CENTAUR R/B 4.1 17:36:15 10° NNW 17:37:38 11° N 17:37:49 11° N
Cosmos 2219 Rocket 4.1 17:34:36 10° N 17:36:27 16° N 17:36:27 16° N
GEOS 3 Rocket 3.5 17:37:58 62° ESE 17:38:52 81° NE 17:44:05 10° NW
Meteor 2-6 Rocket 4.3 17:35:48 10° SSW 17:41:34 80° WNW 17:45:14 23° N
USA 308 3.9 17:40:10 10° WNW 17:43:13 39° NNW 17:43:13 39° NNW
CZ-2C R/B 3.0 17:40:35 16° N 17:44:42 59° WNW 17:49:46 10° SSW
COSMOS 2455 3.4 17:39:46 10° SW 17:45:40 55° NW 17:48:14 33° NNE
CZ-4B R/B 4.3 17:41:57 10° S 17:47:04 42° W 17:52:08 10° NNW
Cosmos 1151 Rocket 4.3 17:45:07 10° SW 17:49:11 39° WNW 17:51:27 22° NNW
Spot 2 4.5 17:46:44 27° SSE 17:49:37 83° WSW 17:54:47 10° NNW
Okean O Rocket 2.9 17:46:58 10° SSW 17:51:09 40° W 17:55:23 10° NNW
Lacrosse 5 rocket 2.4 17:48:00 10° NW 17:50:36 40° WNW 17:50:36 40° WNW
Cosmos 2208 Rocket 4.3 17:55:31 10° SSW 18:00:53 66° WNW 18:01:39 58° NNW
USA 267 3.7 18:01:04 43° NNE 18:02:26 50° NNW 18:08:41 10° W
Meteor 1-11 Rocket 3.8 17:57:27 10° NNW 18:03:03 76° W 18:05:46 32° S
Meteor 1-10 Rocket 4.4 17:57:41 10° SSW 18:03:29 73° WNW 18:04:52 52° N
H-2A R/B 4.3 17:59:31 10° SW 18:03:33 23° W 18:07:31 10° NW
Cosmos 2150 Rocket 4.2 17:59:36 10° NNW 18:04:45 66° WSW 18:04:48 66° WSW
Cosmos 1655 Rocket 4.4 17:59:47 10° NNW 18:06:07 63° W 18:12:22 10° S
Cosmos 2360 Rocket 3.4 18:04:10 10° NNW 18:07:10 31° N 18:07:10 31° N
ATLAS CENTAUR R/B 3.9 18:16:04 10° W 18:20:43 29° NW 18:20:43 29° NW
Cosmos 1125 Rocket 4.3 18:17:43 10° NNW 18:22:15 49° W 18:22:15 49° W
Cosmos 2322 Rocket 3.1 18:23:54 10° NNW 18:27:49 44° NW 18:27:49 44° NW
ATLAS 2AS CENTAUR R/B 4.1 18:32:32 10° NW 18:37:26 29° N 18:37:26 29° N
SL-16 R/B 3.5 18:41:49 10° NW 18:46:11 38° W 18:46:11 38° W
Cosmos 2082 Rocket 4.1 18:47:38 10° W 18:52:03 23° NW 18:52:35 22° NW
Cosmos 2333 Rocket 4.4 18:53:12 10° NNW 18:54:27 17° NNW 18:54:27 17° NNW
